EW7157 Weather Reports


Display with metric or nautical units.
time (UTC)temp
F
wind
direction
speed
MPH
gust
MPH
rain 1hr
in
rain 24hr
in
rain mn
in
humidity
%
barometer
mb
20260905161613 80 135 0.0 0.0 0.00 0.00 0.00 50 1034.0
20260905160615 80 246 0.0 0.0 0.00 0.00 0.00 50 1033.9
20260905155613 80 115 1.0 3.0 0.00 0.00 0.00 50 1033.9
20260905154614 80 90 0.0 1.0 0.00 0.00 0.00 50 1033.8
20260905152613 80 180 0.0 1.0 0.00 0.00 0.00 52 1033.9
20260905151613 80 180 0.0 0.0 0.00 0.00 0.00 52 1034.0
20260905151513 80 180 0.0 0.0 0.00 0.00 0.00 52 1034.0
20260905150513 80 95 0.0 1.0 0.00 0.00 0.00 53 1033.9
20260905145514 79 164 1.0 4.0 0.00 0.00 0.00 54 1033.8
20260905145415 79 157 0.0 2.0 0.00 0.00 0.00 55 1033.7
20260905144514 79 135 0.0 1.0 0.00 0.00 0.00 55 1033.6
20260905143516 78 180 0.0 0.0 0.00 0.02 0.00 56 1033.7
20260905142515 77 90 1.0 2.0 0.00 0.02 0.00 59 1033.6
20260905141614 77 90 0.0 0.0 0.00 0.02 0.00 59 1033.6
20260905140614 77 117 0.0 1.0 0.00 0.02 0.00 61 1033.6
20260905135614 77 45 0.0 2.0 0.00 0.02 0.00 63 1033.5
20260905131714 72 225 0.0 0.0 0.00 0.02 0.00 74 1033.6
20260905130615 72 180 0.0 0.0 0.00 0.02 0.00 75 1033.5
20260905125614 71 180 0.0 0.0 0.00 0.02 0.00 78 1033.6
20260905124613 70 180 0.0 0.0 0.00 0.02 0.00 79 1033.8
20260905123614 70 180 0.0 0.0 0.00 0.02 0.00 79 1034.0
20260905123513 70 180 0.0 0.0 0.00 0.02 0.00 80 1034.0
20260905122414 70 180 0.0 0.0 0.00 0.02 0.00 82 1034.1
20260905121514 69 180 0.0 0.0 0.00 0.02 0.00 83 1033.8
20260905120516 69 180 0.0 0.0 0.00 0.02 0.00 83 1034.1
20260905115513 69 180 0.0 0.0 0.00 0.02 0.00 82 1034.1
20260905114514 69 180 0.0 0.0 0.00 0.02 0.00 83 1033.9
20260905113513 69 180 0.0 0.0 0.00 0.02 0.00 83 1033.7
20260905112516 69 180 0.0 0.0 0.00 0.02 0.00 82 1033.7
20260905105613 69 180 0.0 0.0 0.00 0.02 0.00 81 1033.3
20260905104614 69 180 0.0 0.0 0.00 0.02 0.00 81 1033.1
20260905103713 69 180 0.0 0.0 0.00 0.02 0.00 80 1033.1
20260905103614 69 180 0.0 0.0 0.00 0.02 0.00 81 1033.1
20260905102615 69 180 0.0 0.0 0.00 0.02 0.00 81 1033.0
20260905101615 69 180 0.0 0.0 0.00 0.02 0.00 80 1032.9
20260905095714 70 180 0.0 0.0 0.00 0.02 0.00 81 1033.0
20260905094715 70 180 0.0 0.0 0.00 0.02 0.00 81 1032.8
20260905092813 70 180 0.0 0.0 0.00 0.02 0.00 80 1032.7
20260905091815 70 180 0.0 0.0 0.00 0.02 0.00 80 1032.9
20260905090815 70 180 0.0 0.0 0.00 0.02 0.00 79 1032.9
20260905085814 70 180 0.0 0.0 0.00 0.02 0.00 80 1032.8
20260905084815 70 180 0.0 0.0 0.00 0.02 0.00 81 1032.7
20260905084713 70 180 0.0 0.0 0.00 0.02 0.00 81 1032.8
20260905083813 70 180 0.0 0.0 0.00 0.02 0.00 81 1032.6
20260905082813 70 180 0.0 0.0 0.00 0.02 0.00 81 1032.6
20260905081814 70 180 0.0 0.0 0.00 0.02 0.00 82 1032.6
20260905080912 70 180 0.0 0.0 0.00 0.02 0.00 83 1032.6
20260905075914 70 180 0.0 0.0 0.00 0.02 0.00 82 1032.8
20260905073916 70 180 0.0 0.0 0.00 0.02 0.00 82 1032.8
20260905070014 70 180 0.0 0.0 0.00 0.02 0.00 83 1032.8
20260905065915 70 180 0.0 0.0 0.00 0.02 0.00 83 1032.8
20260905064915 70 180 0.0 0.0 0.00 0.02 0.00 83 1033.0
20260905063915 70 180 0.0 0.0 0.00 0.02 0.00 83 1033.1
20260905061914 70 180 0.0 0.0 0.00 0.02 0.00 83 1033.1
20260905060914 70 180 0.0 0.0 0.00 0.02 0.00 81 1033.0
20260905060812 70 180 0.0 0.0 0.00 0.02 0.00 81 1033.0
20260905055814 70 180 0.0 0.0 0.00 0.02 0.00 80 1033.1
20260905053912 71 180 0.0 0.0 0.00 0.02 0.00 80 1033.1
20260905052916 72 180 0.0 0.0 0.00 0.02 0.00 80 1033.4
20260905051013 73 180 0.0 0.0 0.00 0.02 0.00 81 1033.4
20260905050016 73 180 0.0 0.0 0.00 0.02 0.00 80 1033.5
20260905045913 73 180 0.0 0.0 0.00 0.02 0.00 81 1033.4
20260905045012 73 180 0.0 0.0 0.00 0.02 0.00 80 1033.4
20260905044013 73 180 0.0 0.0 0.00 0.02 0.00 82 1033.6
20260905043014 73 180 0.0 0.0 0.00 0.02 0.00 82 1033.4
20260905042014 74 180 0.0 0.0 0.00 0.02 0.00 82 1033.5
20260905041912 74 180 0.0 0.0 0.00 0.02 0.00 82 1033.6
20260905035922 74 180 0.0 0.0 0.00 0.02 0.02 82 1033.6
20260905033924 74 180 0.0 0.0 0.00 0.02 0.02 81 1033.6
20260905032924 74 180 0.0 0.0 0.00 0.02 0.02 82 1033.6
20260905032822 74 180 0.0 0.0 0.00 0.02 0.02 82 1033.4
20260905031823 74 180 0.0 0.0 0.00 0.02 0.02 82 1033.4
20260905030823 74 180 0.0 0.0 0.00 0.02 0.02 81 1033.4
20260905025922 75 180 0.0 0.0 0.00 0.02 0.02 81 1033.3
20260905023923 75 180 0.0 0.0 0.00 0.02 0.02 82 1033.4
20260905023022 75 180 0.0 0.0 0.00 0.02 0.02 81 1033.3
20260905021922 75 180 0.0 0.0 0.00 0.02 0.02 81 1033.3
20260905020922 75 180 0.0 0.0 0.00 0.02 0.02 80 1033.5
20260905015923 75 180 0.0 0.0 0.00 0.02 0.02 80 1033.4
20260905014923 75 180 0.0 0.0 0.00 0.02 0.02 80 1033.4
20260905013924 75 180 0.0 0.0 0.00 0.02 0.02 79 1033.3
20260905013022 75 180 0.0 0.0 0.00 0.02 0.02 80 1033.4
20260905012023 75 180 0.0 0.0 0.00 0.02 0.02 81 1033.6
20260905011023 75 180 0.0 0.0 0.00 0.02 0.02 80 1033.5
20260905005025 75 180 0.0 0.0 0.00 0.02 0.02 80 1033.5
20260905004025 75 180 0.0 0.0 0.00 0.02 0.02 79 1033.3
20260905003023 75 180 0.0 0.0 0.00 0.02 0.02 78 1033.5
20260905002023 75 180 0.0 0.0 0.00 0.02 0.02 77 1033.2
20260905001021 76 180 0.0 0.0 0.00 0.02 0.02 77 1033.1
20260905000021 76 180 0.0 0.0 0.00 0.02 0.02 76 1032.9
20260904235022 76 180 0.0 0.0 0.00 0.02 0.02 75 1032.9
20260904234023 77 180 0.0 0.0 0.00 0.02 0.02 75 1032.9
20260904233023 77 180 0.0 0.0 0.00 0.02 0.02 75 1032.9
20260904232022 78 180 0.0 0.0 0.00 0.02 0.02 74 1033.0
20260904231923 78 180 0.0 0.0 0.00 0.02 0.02 73 1032.8
20260904230922 78 180 0.0 0.0 0.00 0.02 0.02 73 1033.0
20260904225923 79 180 0.0 0.0 0.00 0.02 0.02 73 1032.9
20260904224922 79 180 0.0 0.0 0.00 0.02 0.02 72 1033.0
20260904223921 80 180 0.0 0.0 0.00 0.02 0.02 71 1033.0
20260904221923 80 180 0.0 0.0 0.00 0.03 0.02 72 1033.4
20260904220923 80 180 0.0 0.0 0.00 0.03 0.02 71 1033.3
20260904215922 80 180 0.0 0.0 0.00 0.03 0.02 71 1033.1
20260904214924 81 180 0.0 2.0 0.00 0.03 0.02 69 1033.3
20260904214022 82 180 0.0 0.0 0.00 0.03 0.02 69 1033.2
20260904213023 82 180 0.0 0.0 0.00 0.03 0.02 67 1033.3
20260904212121 82 180 0.0 0.0 0.00 0.03 0.02 65 1033.2
20260904211124 83 135 0.0 0.0 0.00 0.03 0.02 65 1033.2
20260904210124 84 156 0.0 0.0 0.00 0.03 0.02 64 1033.1
20260904205123 85 180 0.0 0.0 0.00 0.03 0.02 63 1033.0
20260904204121 85 180 0.0 0.0 0.00 0.03 0.02 61 1033.0
20260904203123 86 135 0.0 0.0 0.00 0.03 0.02 61 1033.1
20260904202222 86 135 0.0 0.0 0.00 0.03 0.02 61 1033.2
20260904201221 85 180 0.0 0.0 0.00 0.03 0.02 60 1033.3
20260904200222 85 90 0.0 0.0 0.00 0.03 0.02 60 1033.3
20260904194322 88 183 1.0 3.0 0.00 0.03 0.02 55 1033.7
20260904193321 89 180 0.0 0.0 0.00 0.03 0.02 55 1033.8
20260904192323 89 135 0.0 0.0 0.00 0.03 0.02 53 1034.0
20260904191324 89 180 0.0 0.0 0.00 0.03 0.02 53 1034.0
20260904190323 89 132 0.0 1.0 0.00 0.03 0.02 54 1034.2
20260904185322 89 157 0.0 2.0 0.00 0.03 0.02 55 1034.2
20260904184325 87 165 0.0 3.0 0.00 0.03 0.02 57 1034.3
20260904183422 86 135 0.0 0.0 0.00 0.03 0.02 61 1034.5
20260904182424 84 135 0.0 2.0 0.00 0.03 0.02 64 1034.6
20260904181522 82 157 0.0 0.0 0.00 0.03 0.02 68 1034.4
20260904181438 82 157 0.0 0.0 0.00 0.03 0.02 69 1034.4
20260904181322 82 157 0.0 0.0 0.00 0.03 0.02 69 1034.4
20260904175323 82 180 0.0 0.0 0.00 0.03 0.02 70 1034.6
20260904174322 82 225 0.0 0.0 0.00 0.03 0.02 68 1034.5
20260904173322 83 225 0.0 0.0 0.00 0.03 0.02 67 1034.7
20260904172323 83 225 0.0 0.0 0.00 0.03 0.02 65 1034.6
20260904172240 83 225 0.0 0.0 0.00 0.03 0.02 66 1034.7
20260904171125 83 225 0.0 0.0 0.00 0.03 0.02 66 1034.5
20260904170221 83 225 0.0 0.0 0.00 0.03 0.02 64 1034.8
20260904165223 84 180 0.0 0.0 0.00 0.03 0.02 63 1034.7
20260904165123 84 180 0.0 0.0 0.00 0.03 0.02 63 1034.8